User: anonymous   Login
Location: Unspecified
(0.0000°N, 0.0000°E)
Time: 18:41:48
(UTC+00:00)
Language:

GALILEO 12 (269) - Orbit

View from above orbital plane
View from above orbital plane
View from above satellite
View from above satellite

Ground track
Ground track

The orbit data is extracted from the following two-line orbital elements,

1 41174U 15079A   18143.04146389  .00000049  00000-0  00000+0 0  9993
2 41174  54.9201 182.3248 0006367 288.9076  71.0941  1.70473813 15114
Epoch (UTC): 23 May 2018 00:59:42
Eccentricity: 0.0006367
inclination: 54.9201°
perigee height: 23203 km
apogee height: 23241 km
right ascension of ascending node: 182.3248°
argument of perigee: 288.9076°
revolutions per day: 1.70473813
mean anomaly at epoch: 71.0941°
orbit number at epoch: 1511

The dashed part of the orbit path shows where the satellite is in the earth's shadow,  

DLR